Radiation Dose at Monitoring Post of Fukushima Daini Nuclear Power Station
Date,Time,MP-1(microSv/h),MP-2(microSv/h),MP-3(microSv/h),MP-4(microSv/h),MP-5(microSv/h),MP-6(microSv/h),MP-7(microSv/h),Wind Direction,Wind Velocity(m/s),Rain
2023/07/06,00:00,0.146,0.135,0.210,0.202,0.211,0.118,0.077,south,6.2,Yes
2023/07/06,00:10,0.146,0.136,0.210,0.203,0.208,0.116,0.077,south,6.9,Yes
2023/07/06,00:20,0.146,0.135,0.209,0.200,0.208,0.116,0.075,south,6.8,Yes
2023/07/06,00:30,0.144,0.133,0.211,0.203,0.209,0.116,0.075,south,6.0,Yes
2023/07/06,00:40,0.145,0.134,0.208,0.201,0.209,0.116,0.076,south,7.1,Yes
2023/07/06,00:50,0.146,0.134,0.209,0.199,0.209,0.115,0.074,south,8.1,Yes
2023/07/06,01:00,0.145,0.134,0.209,0.200,0.209,0.115,0.075,south,7.5,Yes
2023/07/06,01:10,0.144,0.133,0.208,0.200,0.206,0.116,0.075,south,7.0,Yes
2023/07/06,01:20,0.145,0.134,0.208,0.199,0.207,0.115,0.075,south,6.5,No
2023/07/06,01:30,0.144,0.133,0.209,0.201,0.207,0.115,0.074,south,6.8,Yes
2023/07/06,01:40,0.144,0.133,0.207,0.201,0.207,0.115,0.074,south,6.5,Yes
2023/07/06,01:50,0.145,0.133,0.210,0.198,0.207,0.115,0.075,south,5.4,Yes
2023/07/06,02:00,0.144,0.134,0.210,0.201,0.210,0.115,0.074,south,5.3,Yes
2023/07/06,02:10,0.144,0.134,0.207,0.201,0.207,0.116,0.075,south,5.8,Yes
2023/07/06,02:20,0.145,0.133,0.209,0.198,0.208,0.116,0.074,south,5.5,Yes
2023/07/06,02:30,0.145,0.134,0.209,0.201,0.210,0.116,0.075,south,5.0,Yes
2023/07/06,02:40,0.144,0.133,0.207,0.200,0.206,0.117,0.076,south,6.2,Yes
2023/07/06,02:50,0.146,0.134,0.210,0.199,0.209,0.116,0.076,south-southeast,5.8,Yes
2023/07/06,03:00,0.145,0.133,0.208,0.201,0.208,0.115,0.076,south,5.8,No
2023/07/06,03:10,0.144,0.134,0.207,0.198,0.206,0.116,0.076,south,7.6,Yes
2023/07/06,03:20,0.146,0.133,0.211,0.199,0.208,0.116,0.075,south-southwest,7.7,Yes
2023/07/06,03:30,0.144,0.134,0.207,0.200,0.207,0.114,0.075,south,6.2,No
2023/07/06,03:40,0.145,0.133,0.208,0.197,0.205,0.115,0.075,south,6.1,No
2023/07/06,03:50,0.145,0.133,0.208,0.199,0.208,0.115,0.074,south,7.0,No
2023/07/06,04:00,0.144,0.133,0.206,0.199,0.207,0.114,0.075,south,6.4,Yes
2023/07/06,04:10,0.145,0.132,0.209,0.198,0.206,0.116,0.075,south,7.8,No
2023/07/06,04:20,0.144,0.134,0.206,0.199,0.208,0.115,0.074,south,7.2,No
2023/07/06,04:30,0.144,0.133,0.207,0.200,0.206,0.114,0.075,south,6.9,No
2023/07/06,04:40,0.144,0.132,0.209,0.198,0.204,0.115,0.074,south-southwest,7.5,No
2023/07/06,04:50,0.145,0.134,0.207,0.200,0.208,0.115,0.073,south,7.3,No
2023/07/06,05:00,0.144,0.134,0.206,0.198,0.207,0.113,0.074,south,6.0,No
2023/07/06,05:10,0.143,0.131,0.208,0.198,0.205,0.115,0.073,south,6.1,No
2023/07/06,05:20,0.145,0.133,0.206,0.199,0.209,0.114,0.074,south,4.9,No
2023/07/06,05:30,0.144,0.132,0.207,0.198,0.207,0.114,0.074,south,3.8,No
2023/07/06,05:40,0.143,0.132,0.207,0.196,0.206,0.114,0.073,south,4.4,No
2023/07/06,05:50,0.144,0.133,0.206,0.199,0.207,0.115,0.074,south,4.8,No
2023/07/06,06:00,0.144,0.133,0.207,0.198,0.207,0.114,0.074,south,5.1,No
2023/07/06,06:10,0.143,0.132,0.208,0.197,0.205,0.114,0.073,south,5.6,No
2023/07/06,06:20,0.144,0.131,0.207,0.199,0.205,0.115,0.074,south,5.0,No
2023/07/06,06:30,0.144,0.133,0.207,0.199,0.209,0.115,0.073,south,5.6,No
2023/07/06,06:40,0.144,0.132,0.207,0.198,0.205,0.114,0.073,south,6.1,No
2023/07/06,06:50,0.144,0.132,0.207,0.196,0.205,0.115,0.074,south,5.7,No
2023/07/06,07:00,0.145,0.133,0.206,0.200,0.207,0.116,0.073,south,6.4,No
2023/07/06,07:10,0.144,0.132,0.209,0.199,0.208,0.114,0.074,south,6.3,No
2023/07/06,07:20,0.143,0.132,0.208,0.197,0.205,0.115,0.074,south,6.7,No
2023/07/06,07:30,0.143,0.131,0.205,0.196,0.205,0.115,0.074,south-southeast,5.7,No
2023/07/06,07:40,0.145,0.133,0.204,0.199,0.204,0.115,0.074,south,6.1,No
2023/07/06,07:50,0.144,0.134,0.204,0.199,0.204,0.114,0.073,south,6.9,No
2023/07/06,08:00,0.144,0.133,0.205,0.198,0.204,0.114,0.074,south,7.3,No
2023/07/06,08:10,0.143,0.133,0.206,0.197,0.206,0.114,0.074,south,7.2,No
2023/07/06,08:20,0.143,0.132,0.206,0.197,0.206,0.114,0.074,south,6.7,No
2023/07/06,08:30,0.143,0.133,0.206,0.196,0.209,0.115,0.073,south,5.2,No
2023/07/06,08:40,0.145,0.132,0.206,0.197,0.210,0.116,0.073,south-southeast,4.7,No
2023/07/06,08:50,0.144,0.132,0.210,0.198,0.207,0.115,0.074,south,4.4,No
2023/07/06,09:00,0.143,0.132,0.209,0.201,0.205,0.114,0.074,south-southeast,4.6,No
2023/07/06,09:10,0.143,0.132,0.208,0.199,0.207,0.115,0.073,south,4.4,No
2023/07/06,09:20,0.143,0.133,0.207,0.198,0.208,0.115,0.073,south-southeast,4.4,No
2023/07/06,09:30,0.142,0.132,0.207,0.199,0.208,0.115,0.074,south,3.6,No
2023/07/06,09:40,0.143,0.133,0.208,0.199,0.206,0.114,0.074,south-southeast,2.8,No
2023/07/06,09:50,0.144,0.133,0.208,0.198,0.207,0.114,0.074,south-southeast,3.2,No
2023/07/06,10:00,0.143,0.133,0.208,0.199,0.207,0.115,0.074,south-southeast,4.1,No
2023/07/06,10:10,0.143,0.133,0.207,0.199,0.206,0.115,0.074,south-southeast,4.0,No
2023/07/06,10:20,0.144,0.133,0.206,0.198,0.207,0.115,0.074,south-southeast,3.4,Yes
2023/07/06,10:30,0.143,0.133,0.206,0.197,0.207,0.115,0.073,south-southeast,4.0,No
2023/07/06,10:40,0.143,0.132,0.207,0.197,0.207,0.115,0.073,south-southeast,3.8,No
2023/07/06,10:50,0.143,0.132,0.207,0.199,0.206,0.116,0.073,south-southeast,4.3,No
2023/07/06,11:00,0.145,0.132,0.208,0.198,0.206,0.115,0.073,south-southeast,6.1,No
2023/07/06,11:10,0.146,0.132,0.206,0.198,0.206,0.115,0.074,south-southeast,5.4,No
2023/07/06,11:20,0.145,0.133,0.207,0.198,0.207,0.115,0.074,south-southeast,5.0,No
2023/07/06,11:30,0.145,0.133,0.207,0.198,0.208,0.115,0.073,south,4.1,No
2023/07/06,11:40,0.144,0.133,0.208,0.200,0.207,0.114,0.074,south,4.0,No
2023/07/06,11:50,0.144,0.133,0.209,0.198,0.208,0.115,0.074,south-southeast,3.8,No
2023/07/06,12:00,0.145,0.133,0.208,0.199,0.208,0.115,0.075,south-southeast,3.9,No
2023/07/06,12:10,0.144,0.134,0.208,0.199,0.207,0.115,0.074,south-southeast,4.2,No
2023/07/06,12:20,0.144,0.134,0.209,0.200,0.208,0.116,0.074,south,5.0,No
2023/07/06,12:30,0.143,0.134,0.209,0.199,0.208,0.115,0.074,south-southeast,4.7,No
2023/07/06,12:40,0.143,0.134,0.208,0.200,0.208,0.115,0.074,south,5.1,No
2023/07/06,12:50,0.144,0.133,0.209,0.200,0.208,0.115,0.074,south-southeast,5.4,No
2023/07/06,13:00,0.143,0.133,0.209,0.200,0.207,0.115,0.075,south-southeast,5.0,No
2023/07/06,13:10,0.144,0.132,0.209,0.199,0.208,0.115,0.074,south-southeast,4.7,No
2023/07/06,13:20,0.144,0.133,0.209,0.200,0.208,0.116,0.074,south-southeast,5.3,No
2023/07/06,13:30,0.143,0.133,0.208,0.198,0.206,0.116,0.074,south-southeast,5.1,No
2023/07/06,13:40,0.143,0.133,0.207,0.199,0.209,0.115,0.074,south-southeast,5.5,No
2023/07/06,13:50,0.143,0.132,0.209,0.199,0.207,0.115,0.074,south-southeast,4.8,No
2023/07/06,14:00,0.144,0.133,0.208,0.199,0.207,0.116,0.073,south-southeast,4.7,No
2023/07/06,14:10,0.143,0.134,0.210,0.199,0.207,0.115,0.073,south-southeast,4.9,No
2023/07/06,14:20,0.144,0.132,0.208,0.200,0.207,0.116,0.073,south-southeast,4.6,No
2023/07/06,14:30,0.144,0.133,0.209,0.200,0.208,0.115,0.074,south-southeast,4.5,No
2023/07/06,14:40,0.145,0.134,0.209,0.200,0.208,0.115,0.074,south-southeast,3.8,No
2023/07/06,14:50,0.144,0.132,0.209,0.199,0.207,0.115,0.073,south-southeast,4.1,No
2023/07/06,15:00,0.145,0.133,0.207,0.201,0.208,0.115,0.074,south-southeast,3.3,No
2023/07/06,15:10,0.144,0.133,0.207,0.199,0.208,0.116,0.073,south-southeast,2.7,No
2023/07/06,15:20,0.145,0.133,0.209,0.201,0.208,0.116,0.074,south-southeast,3.0,No
2023/07/06,15:30,0.144,0.134,0.208,0.201,0.209,0.115,0.073,south-southeast,2.5,No
2023/07/06,15:40,0.144,0.133,0.210,0.200,0.209,0.116,0.074,south-southeast,2.4,No
2023/07/06,15:50,0.145,0.133,0.209,0.200,0.210,0.115,0.073,south-southeast,1.8,No
2023/07/06,16:00,0.145,0.134,0.210,0.200,0.209,0.115,0.073,south-southeast,2.9,No
2023/07/06,16:10,0.144,0.133,0.209,0.199,0.209,0.115,0.074,southeast,3.1,No
2023/07/06,16:20,0.144,0.133,0.209,0.200,0.209,0.115,0.074,south-southeast,2.3,No
2023/07/06,16:30,0.145,0.133,0.209,0.200,0.208,0.115,0.075,south-southeast,2.9,No
2023/07/06,16:40,0.146,0.134,0.208,0.200,0.208,0.115,0.074,south,2.9,No
2023/07/06,16:50,0.145,0.132,0.210,0.199,0.208,0.115,0.075,south,2.5,No
2023/07/06,17:00,0.146,0.134,0.212,0.200,0.209,0.115,0.074,south,2.5,No
2023/07/06,17:10,0.145,0.135,0.211,0.203,0.208,0.116,0.074,south,2.2,No
2023/07/06,17:20,0.145,0.135,0.211,0.203,0.208,0.115,0.074,south,2.3,No
2023/07/06,17:30,0.144,0.134,0.210,0.201,0.209,0.116,0.075,south-southeast,2.2,No
2023/07/06,17:40,0.145,0.133,0.208,0.200,0.208,0.115,0.074,south-southeast,3.1,No
2023/07/06,17:50,0.144,0.134,0.209,0.200,0.209,0.116,0.074,south-southeast,2.3,No
2023/07/06,18:00,0.144,0.134,0.212,0.202,0.209,0.116,0.074,south,2.7,No
2023/07/06,18:10,0.144,0.135,0.211,0.203,0.208,0.116,0.075,south,2.2,No
2023/07/06,18:20,0.145,0.135,0.210,0.201,0.208,0.115,0.074,south,3.1,No
2023/07/06,18:30,0.144,0.134,0.208,0.200,0.207,0.115,0.075,south,3.2,No
2023/07/06,18:40,0.145,0.133,0.211,0.202,0.208,0.116,0.074,south,2.8,No
2023/07/06,18:50,0.146,0.136,0.212,0.203,0.211,0.115,0.074,south,2.4,No
2023/07/06,19:00,0.146,0.134,0.210,0.202,0.210,0.115,0.074,south,2.7,No
2023/07/06,19:10,0.145,0.134,0.209,0.200,0.208,0.116,0.074,south,2.5,No
2023/07/06,19:20,0.145,0.135,0.212,0.203,0.209,0.116,0.074,south,1.6,No
2023/07/06,19:30,0.147,0.135,0.210,0.203,0.211,0.115,0.075,south-southwest,2.9,No
2023/07/06,19:40,0.146,0.134,0.209,0.201,0.211,0.115,0.074,south-southwest,1.8,No
2023/07/06,19:50,0.145,0.135,0.212,0.203,0.209,0.116,0.074,southwest,1.3,No
2023/07/06,20:00,0.146,0.136,0.211,0.203,0.211,0.115,0.075,south-southwest,0.7,No
2023/07/06,20:10,0.146,0.133,0.209,0.201,0.211,0.115,0.075,south-southwest,1.1,No
2023/07/06,20:20,0.145,0.135,0.213,0.203,0.209,0.117,0.074,south-southeast,1.9,No
2023/07/06,20:30,0.146,0.136,0.213,0.204,0.210,0.116,0.075,south,1.9,No
2023/07/06,20:40,0.147,0.134,0.210,0.202,0.212,0.116,0.075,south,1.2,Yes
2023/07/06,20:50,0.146,0.135,0.213,0.203,0.210,0.117,0.075,south-southwest,1.5,No
2023/07/06,21:00,0.147,0.136,0.212,0.203,0.209,0.117,0.075,west-southwest,1.1,No
2023/07/06,21:10,0.147,0.135,0.211,0.202,0.212,0.116,0.076,west-northwest,1.0,No
2023/07/06,21:20,0.146,0.136,0.213,0.203,0.210,0.117,0.075,southwest,0.6,No
2023/07/06,21:30,0.145,0.135,0.211,0.203,0.209,0.116,0.076,-,CALM,No
2023/07/06,21:40,0.147,0.135,0.213,0.201,0.212,0.116,0.075,west-northwest,0.9,No
2023/07/06,21:50,0.146,0.137,0.212,0.204,0.211,0.118,0.075,-,CALM,No
2023/07/06,22:00,0.146,0.135,0.212,0.201,0.209,0.116,0.076,-,CALM,No
2023/07/06,22:10,0.147,0.135,0.212,0.202,0.212,0.116,0.075,west-southwest,1.5,No
2023/07/06,22:20,0.145,0.136,0.211,0.203,0.210,0.116,0.075,west-southwest,1.5,No
2023/07/06,22:30,0.147,0.135,0.212,0.202,0.208,0.116,0.075,west-northwest,1.0,No
2023/07/06,22:40,0.147,0.137,0.212,0.204,0.211,0.116,0.075,-,CALM,No
2023/07/06,22:50,0.147,0.135,0.211,0.203,0.209,0.117,0.075,-,CALM,No
2023/07/06,23:00,0.148,0.136,0.212,0.202,0.210,0.117,0.076,west-northwest,1.1,No
2023/07/06,23:10,0.145,0.134,0.209,0.204,0.212,0.116,0.076,-,CALM,No
2023/07/06,23:20,0.146,0.135,0.213,0.201,0.211,0.116,0.075,-,CALM,No
2023/07/06,23:30,0.148,0.135,0.211,0.205,0.210,0.117,0.076,-,CALM,No
2023/07/06,23:40,0.145,0.135,0.212,0.203,0.212,0.117,0.075,-,CALM,No
2023/07/06,23:50,0.146,0.135,0.212,0.202,0.209,0.116,0.075,-,CALM,No
